WetterOnline ( https://www.wetteronline.de )

Wetter aktuell Sonthofen/Oberallgäu

Aktuelles Wetter: Oberstdorf (812m)

6-stündlich | Neueste Meldungen
Ortszeit Temperatur Wetter
Mo, 24.01. 13:00 0.7° C wolkenlos
Mo, 24.01. 7:00 -9.9° C Nebel
Mo, 24.01. 1:00 -6.5° C bewölkt
So, 23.01. 19:00 -0.8° C bedeckt
So, 23.01. 13:00 0.9° C bedeckt
So, 23.01. 7:00 -1.2° C bedeckt
So, 23.01. 1:00 -0.9° C bedeckt
Sa, 22.01. 19:00 0.3° C Sprühregen
Ortszeit Temperatur Wetter
Mo, 24.01. 14:00 1.6° C wolkenlos
Mo, 24.01. 13:30 0.2° C wolkenlos
Mo, 24.01. 13:00 0.7° C wolkenlos
Mo, 24.01. 12:30 -1.8° C wolkenlos
Mo, 24.01. 12:00 -3.3° C wolkenlos
Mo, 24.01. 11:50 -3.3° C wolkenlos
Mo, 24.01. 11:30 -4.6° C wolkenlos
Mo, 24.01. 11:00 -4.1° C wolkenlos
Ortszeit Relative Feuchte Sichtweite
Mo, 24.01. 13:00 64% >70 km
Mo, 24.01. 7:00 95% 0.9 km
Mo, 24.01. 1:00 90% >70 km
So, 23.01. 19:00 87% 65 km
So, 23.01. 13:00 74% 55 km
So, 23.01. 7:00 89% >70 km
So, 23.01. 1:00 96% 30 km
Sa, 22.01. 19:00 93% 14 km
Ortszeit Relative Feuchte Sichtweite
Mo, 24.01. 14:00 61% 50 km
Mo, 24.01. 13:30 63% 60 km
Mo, 24.01. 13:00 64% >70 km
Mo, 24.01. 12:30 70% 55 km
Mo, 24.01. 12:00 73% 60 km
Mo, 24.01. 11:50 73% -
Mo, 24.01. 11:30 75% 65 km
Mo, 24.01. 11:00 76% >70 km
Ortszeit Niederschlagsmenge Niederschlagsart
Mo, 24.01. 13:00 0.0 l/m2 in 6 Std. -
Mo, 24.01. 7:00 0.0 l/m2 in 12 Std. -
Mo, 24.01. 1:00 0.0 l/m2 in 6 Std. -
So, 23.01. 19:00 0.0 l/m2 in 12 Std. -
So, 23.01. 13:00 0.0 l/m2 in 6 Std. -
So, 23.01. 7:00 0.1 l/m2 in 12 Std. -
So, 23.01. 1:00 0.1 l/m2 in 6 Std. Schnee, Sprühregen
Sa, 22.01. 19:00 3 l/m2 in 12 Std. Schnee, Regen
Ortszeit Niederschlagsmenge Niederschlagsart
Mo, 24.01. 14:00 0.0 l/m2 in 1 Std. -
Mo, 24.01. 13:30 0.0 l/m2 in 1 Std. -
Mo, 24.01. 13:00 0.0 l/m2 in 1 Std. -
Mo, 24.01. 12:30 0.0 l/m2 in 1 Std. -
Mo, 24.01. 12:00 0.0 l/m2 in 1 Std. -
Mo, 24.01. 11:50 keine Meldung -
Mo, 24.01. 11:30 0.0 l/m2 in 1 Std. -
Mo, 24.01. 11:00 0.0 l/m2 in 1 Std. -
Ortszeit Stärke Spitze Richtung
km/h Bft. km/h Grad Sektor
Mo, 24.01. 13:00 0 0 7 - -
Mo, 24.01. 7:00 0 0 11 - -
Mo, 24.01. 1:00 7 2 11 150° SO
So, 23.01. 19:00 4 1 11 90° O
So, 23.01. 13:00 2 1 19 340° N
So, 23.01. 7:00 4 1 14 160° S
So, 23.01. 1:00 4 1 11 170° S
Sa, 22.01. 19:00 4 1 11 180° S
Ortszeit Stärke Spitze Richtung
km/h Bft. km/h Grad Sektor
Mo, 24.01. 14:00 2 1 4 250° W
Mo, 24.01. 13:30 0 0 4 - -
Mo, 24.01. 13:00 0 0 4 - -
Mo, 24.01. 12:30 0 0 4 - -
Mo, 24.01. 12:00 4 1 7 150° SO
Mo, 24.01. 11:50 4 1 - 150° SO
Mo, 24.01. 11:30 4 1 7 150° SO
Mo, 24.01. 11:00 0 0 7 - -
Ortszeit Untergrenze Bedeckung Gattung
total tief tief mittel hoch
Mo, 24.01. 13:00 - 0/8 0/8 - - -
Mo, 24.01. 7:00 - 0/8 0/8 - - -
Mo, 24.01. 1:00 30 m 7/8 7/8 - - -
So, 23.01. 19:00 240 m 8/8 8/8 - - -
So, 23.01. 13:00 300 m 8/8 8/8 - - -
So, 23.01. 7:00 300 m 8/8 8/8 - - -
So, 23.01. 1:00 1140 m 8/8 8/8 - - -
Sa, 22.01. 19:00 870 m 7/8 7/8 - - -
Ortszeit Bedeckungsgrad in Achtel und Wolkenuntergrenze
Mo, 24.01. 14:00 keine Wolken
Mo, 24.01. 13:30 keine Wolken
Mo, 24.01. 13:00 keine Wolken
Mo, 24.01. 12:30 keine Wolken
Mo, 24.01. 12:00 keine Wolken
Mo, 24.01. 11:50 keine Wolken
Mo, 24.01. 11:30 keine Wolken
Mo, 24.01. 11:00 keine Wolken
Ortszeit Stationsdruck (hPa) Tendenz (hPa in 3 Std.)
Mo, 24.01. 13:00 936 - 0,2
Mo, 24.01. 7:00 935 - 0,7
Mo, 24.01. 1:00 937 - 0,2
So, 23.01. 19:00 937 0,0
So, 23.01. 13:00 937 - 1,1
So, 23.01. 7:00 938 + 0,3
So, 23.01. 1:00 937 - 1,0
Sa, 22.01. 19:00 938 + 1,0
Ortszeit Stationsdruck (hPa) Tendenz (hPa in 3 Std.)
Mo, 24.01. 14:00 936 - 0,9
Mo, 24.01. 13:30 936 - 0,4
Mo, 24.01. 13:00 936 - 0,2
Mo, 24.01. 12:30 936 - 0,2
Mo, 24.01. 12:00 936 0,0
Mo, 24.01. 11:50 936 keine Meldung
Mo, 24.01. 11:30 936 + 0,2
Mo, 24.01. 11:00 937 + 0,7
Ortszeit Schneehöhe (cm)
Mo, 24.01. 13:00 17
Mo, 24.01. 7:00 17
Mo, 24.01. 1:00 17
So, 23.01. 19:00 17
So, 23.01. 13:00 18
So, 23.01. 7:00 18
So, 23.01. 1:00 18
Sa, 22.01. 19:00 19
Ortszeit Schneehöhe (cm)
Mo, 24.01. 14:00 17
Mo, 24.01. 13:30 17
Mo, 24.01. 13:00 17
Mo, 24.01. 12:30 17
Mo, 24.01. 12:00 17
Mo, 24.01. 11:50 17
Mo, 24.01. 11:30 17
Mo, 24.01. 11:00 17
Link zu dieser Seite / Seite empfehlen

Das Wetter in ...